www.pogodaiklimat.ru

Погода и климат >> Архив погоды >> Индия >> Harnai


ПОГОДА в Harnai

  • Прогноз погоды в Harnai
  • Монитор погоды в Harnai
  • Климат города

АРХИВ ПОГОДЫ в Harnai

Время (UTC), дата Ветер
(напр.,м/с)
 
Видим.   Явления Облачность Т
(С)
Тd
(С)
f
(%)
Тe
(С)
Тes
(С)
Комфортность P
(гПа)
Po
(гПа)
Тmin
(С)
Tmax
(С)
R
(мм)
R24
(мм)
S
(см)
06 10.08 З 2 4000 м в посл. час дождь {туман} 10/5 600 м
[Cu Sc Ac As]
+27.2 -20.1 3 +23 +26 комфорт 1009.5 1010.0 4
09 10.08 З 2 4000 м {дождь, туман} 10/5 600 м
[Cu Sc Ac As]
+29.2 -20.1 3 +25 +27 комфорт 1008.4 1008.0 4
12 10.08 З 1 4000 м {дождь, морось} 10/5 600 м
[Cu Sc Ac As]
+28.0 -20.1 3 +24 +24 комфорт 1007.3 1007.0 +30.0 13
03 11.08 штиль 0 4000 м {туман} 10/5 600 м
[Cu Sc Ac As]
+26.4 0.0 18 +25 +26 комфорт 1009.3 1009.0 +25.2 44
06 11.08 З 1 4000 м {дождь, туман} 9/5 600 м
[Cu Sc Ac As]
+30.0 -20.1 3 +25 +31 комфорт 1010.2 1010.0 12
09 11.08 З 2 4000 м {дождь, туман} 9/5 600 м
[Cu Sc Ac As]
+29.8 -20.1 3 +25 +29 комфорт 1009.2 1009.0 12
12 11.08 З 2 4000 м морось {дождь} 10/5 600 м
[Cu Sc Ac As]
+27.6 -20.1 3 +23 +24 комфорт 1008.1 1008.0 +31.0 32
03 12.08 З 2 4000 м {морось} 10/5 600 м
[Cu Sc Ac As]
+28.4 0.0 16 +26 +27 жарко 1010.7 1011.0 +25.1 37
06 12.08 З 2 4000 м {туман} 9/5 600 м
[Cu Sc Ac As]
+29.6 0.0 15 +27 +32 жарко 1011.3 1011.0 1
09 12.08 З 2 4000 м {туман} 9/5 600 м
[Cu Sc Ac As]
+30.0 -20.1 3 +25 +30 комфорт 1010.1 1010.0 1
12 12.08 З 2 4000 м {туман} 10/5 600 м
[Cu Sc Ac As]
+29.6 -20.1 3 +25 +25 комфорт 1009.1 1009.0 +31.5 1
03 13.08 З 2 4000 м {туман} 10/5 600 м
[Cu Sc Ac As]
+28.6 0.0 16 +26 +27 жарко 1010.8 1011.0 +26.9 1
06 13.08 З 2 4000 м {туман} 9/5 600 м
[Cu Sc Ac As]
+29.6 -20.1 3 +25 +30 комфорт 1011.8 1012.0
09 13.08 З 1 4000 м {туман} 9/5 600 м
[Cu Sc Ac As]
+31.2 -20.1 3 +26 +31 жарко 1010.1 1010.0
12 13.08 З 1 4000 м {туман} 9/5 600 м
[Cu Sc Ac As]
+29.6 -20.1 3 +25 +26 комфорт 1010.2 1010.0 +31.4
03 14.08 штиль 0 4000 м {туман} 10/5 600 м
[Cu Sc Ac As]
+28.4 0.0 16 +26 +27 жарко 1011.6 1012.0 +25.6 4
06 14.08 З 1 4000 м {туман} 6/5 600 м
[Cu Sc Ac As]
+30.6 -20.1 3 +26 +36 жарко 1012.5 1013.0
09 14.08 З 2 4000 м {туман} 6/5 600 м
[Sc diur, vesp Ac As]
+29.6 -20.1 3 +25 +33 комфорт 1011.2 1011.0
12 14.08 З 2 4000 м {туман} 9/5 600 м
[Cu Sc Ac As]
+29.0 -20.1 3 +24 +25 комфорт 1010.2 1010.0 +31.7
03 15.08 штиль 0 4000 м {туман} 10/5 600 м
[Cu Sc Ac As]
+25.0 0.0 19 +23 +25 комфорт 1011.9 1012.0 +23.6 44
06 15.08 штиль 0 4000 м {туман} 8/5 600 м
[Cu Sc Ac As]
+28.0 0.0 16 +26 +34 жарко 1012.2 1012.0
09 15.08 З 2 4000 м {туман} 8/5 600 м
[Cu Sc Ac As]
+30.0 -20.1 3 +25 +31 комфорт 1010.2 1010.0
12 15.08 З 2 4000 м {туман} 9/5 600 м
[Cu Sc Ac As]
+29.6 -20.1 3 +25 +26 комфорт 1009.2 1009.0 +31.5
03 16.08 штиль 0 4000 м {туман} 9/5 600 м
[Cu Sc Ac As]
+26.4 0.0 18 +25 +26 комфорт 1010.7 1011.0 +24.8 37
06 16.08 З 1 4000 м {туман} 9/5 600 м
[Cu Sc Ac As]
+28.6 -20.1 3 +24 +29 комфорт 1010.9 1011.0
09 16.08 штиль 0 4000 м {туман} 8/5 600 м
[Cu Sc Ac As]
+30.0 0.0 14 +27 +34 жарко 1008.3 1008.0
12 16.08 З 2 4000 м {туман} 10/5 600 м
[Cu Sc Ac As]
+29.0 -20.1 3 +24 +25 комфорт 1007.5 1008.0 +31.0

 

Местоположение метеостанции Harnai (Maharashtra, Индия): широта 17.82 долгота 73.10 высота над уровнем моря 20 м.

В архиве по умолчанию представлена погода в Harnai за последнюю неделю. Архивные данные за месяц целиком и за предыдущие месяцы, начиная с января 2011 года, Вы можете получить, выбрав интересующий диапазон дат из раскрывающегося списка и нажав кнопку "Ввод!".

Внимание! Время в таблицах - всемирное. Для получения местного времени необходимо прибавить поправку, которая в Harnai равна 5.5 ч.

Смотрите также архив погоды в соседних городах и на ближайших метеорологических станциях:

Погода в Mahabaleshwar (Maharashtra, Индия) (62 км)
Погода в Bhira (Maharashtra, Индия) (77 км)
Погода в Alibag (Maharashtra, Индия) (93 км)
Погода в Ratnagiri (Maharashtra, Индия) (97 км)
Погода в Satara (Maharashtra, Индия) (106 км)
Погода в Pune (Maharashtra, Индия) (112 км)
Погода в Mumbai Colaba (Maharashtra, Индия) (124 км)
Погода в Mumbai (Maharashtra, Индия) (147 км)
Погода в Kolhapur (Maharashtra, Индия) (173 км)
Погода в Sangli (Maharashtra, Индия) (192 км)

Пояснения к столбцам:

Ветер - указаны скорость ветра в м/с - средняя за 10 мин, порывы в срок и между сроками (в фигурных скобках) и направление, откуда дует ветер: С - северный, СВ - северо-восточный, В - восточный, ЮВ - юго-восточный, Ю - южный, ЮЗ - юго-западный, З - западный, СЗ - северо-западный.
Видимость - горизонтальная дальность видимости в метрах или километрах. При видимости от 1 до 10 км при отсутствии осадков обычно наблюдается дымка, при ухудшении видимости до 1 км и менее - туман. В сухую погоду видимость может ухудшаться дымом, пылью или мглою.
Явления - указаны атмосферные явления, наблюдавшиеся в срок или в последний час перед сроком; фигурными скобками обозначены явления, наблюдавшиеся между сроками (за 1-3 часа до срока); квадратными скобками обозначены град или гололедные отложения с указанием их диаметра в мм.
Облачность - указаны через наклонную черту общая и нижняя облачность в баллах и высота нижней границы облаков в метрах; квадратными скобками обозначены формы облаков: Ci - перистые, Cs - перисто-слоистые, Cc - перисто-кучевые, Ac - высококучевые, As - высокослоистые, Sc - слоисто-кучевые, Ns - слоисто-дождевые, Cu - кучевые, Cb - кучево-дождевые. Подробнее классификацию облаков см. в Атласе облаков (PDF).
T - Температура воздуха - температура, измеренная на высоте 2 м над землей.
Td - Температура точки росы - температура, при понижении до которой содержащийся в воздухе водяной пар достигнет насыщения.
f - Относительная влажность воздуха - влажноcть воздуха, измеренная на высоте 2 м над землей.
Te - Эффективная температура - температура, которую ощущает одетый по сезону человек в тени. Характеристика душности погоды. При расчете учитывается влияние влажности воздуха и скорости ветра на теплоощущения человека.
Tes - Эффективная температура на солнце - температура, которую ощущает человек, с поправкой на солнечный нагрев. Характеристика знойности погоды. Зависит от высоты солнца над горизонтом, облачности и скорости ветра. Ночью, в пасмурную погоду, а также при ветре 12 м/с и более поправка равна нулю.
P - Атмосферное давление - приведенное к уровню моря атмосферное давление.
Po - Атмосферное давление - измеренное на уровне метеостанции атмосферное давление.
Tmin - Минимальная температура - минимум температуры воздуха на высоте 2 м над землей.
Tmax - Максимальная температура - максимум температуры воздуха на высоте 2 м над землей.
R - Количество осадков - Количество выпавших осадков за период времени, мм. При наведении курсора мыши на число - период времени, за который выпало указанное количество осадков.
R24 - Количество осадков - Количество выпавших осадков за 24 часа, мм.
S - Снежный покров - Высота снежного покрова, см. При наведении курсора мыши на число - состояние снежного покрова и степень покрытия местности в баллах.